RH
68 67 65 64 65 64 63 65 64 61 59 60 59 59 59 62 56 36 34 44 38 39 30 28 34 36 38 50 52 66 87 88 77 72 60 46 50 41 47 68 61 68 85 73 66
68 67 65 64 64 63 63 66 64 60 62 58 59 59 60 63 53 31 29 37 38 37 21 32 41 40 51 53 55 68 89 70 55 58 61 54 55 52 60 63 68 58 76 73 65
67 67 64 65 64 63 63 65 62 59 59 61 60 60 62 64 43 26 33 40 38 33 21 31 41 48 61 60 60 66 80 59 51 51 54 61 62 53 63 72 63 53 71 78 75
66 65 65 64 64 63 62 65 61 56 55 55 57 59 62 50 16 20 36 35 35 22 22 34 46 62 68 71 61 76 60 56 55 50 53 59 54 58 66 60 51 49 63 80 80
66 65 65 64 64 63 61 64 63 58 58 54 57 59 37 23 23 15 34 32 20 21 25 38 56 68 74 72 72 81 68 56 54 57 56 54 62 63 62 50 53 47 58 83 81
66 66 66 64 63 62 62 63 62 60 59 56 57 56 25 22 16 18 18 20 22 26 28 33 52 58 71 74 84 66 67 67 62 55 59 74 79 69 64 55 52 47 56 82 83
66 67 68 64 63 63 63 63 60 60 56 55 55 48 23 19 22 21 19 22 25 26 28 32 51 61 69 76 67 72 86 65 58 53 60 74 74 79 60 59 60 51 50 80 82
67 67 68 64 63 64 65 65 63 57 57 50 52 46 32 22 29 18 24 23 23 26 27 33 50 61 72 65 61 70 73 84 57 53 62 70 79 72 83 76 77 60 55 78 85
69 70 69 63 64 66 66 68 65 53 47 49 32 36 18 20 18 22 26 28 24 28 35 30 49 67 57 75 82 86 94 84 75 52 57 74 89 94 84 86 91 78 65 70 78
72 71 69 62 65 65 64 59 51 30 25 26 18 20 15 21 22 20 24 26 34 32 42 52 50 64 68 84 96 87 92 85 89 64 57 76 97 95 91 94 93 90 86 87 88
72 70 70 62 64 63 52 40 36 27 26 22 25 20 20 21 19 23 29 33 28 34 49 56 59 67 58 64 68 70 82 92 77 62 72 95 90 98 95 89 95 95 91 87 84
71 70 70 60 63 60 60 60 74 46 30 24 21 25 22 23 27 25 33 42 38 47 46 50 56 44 46 54 67 73 80 88 71 60 66 88 95 96 97 99 99 99 92 91 81
71 70 67 62 58 61 72 73 66 68 45 27 22 22 23 22 30 32 40 49 52 56 61 68 42 43 50 62 69 71 80 88 82 65 72 94 96 92 93 92 80 81 83 79 81
71 68 66 63 47 64 66 64 68 57 74 24 22 20 21 27 27 30 39 53 57 68 68 63 43 53 59 62 65 92 63 67 76 88 97 98 98 87 83 87 71 73 90 89 82
68 61 58 46 47 49 56 65 69 62 54 25 27 23 25 27 31 31 39 55 71 70 61 55 58 61 62 60 60 76 63 81 82 89 96 95 94 84 63 78 78 79 82 90 82
62 57 51 45 54 56 66 65 63 77 47 33 31 39 35 39 43 47 53 54 61 60 61 64 54 55 54 49 59 61 81 66 80 95 95 93 90 91 94 97 84 83 83 87 84
59 58 45 40 36 58 70 72 79 67 29 29 36 43 42 45 50 58 76 83 93 83 97 69 52 48 45 69 61 69 87 92 87 94 98 91 83 97 90 95 97 97 92 92 90
63 57 48 44 58 64 71 78 44 43 44 41 45 40 45 48 50 60 66 89 80 92 96 98 74 58 46 66 74 84 89 98 99 98 94 75 97 95 63 67 87 96 91 83 89
62 66 52 51 54 64 71 79 59 46 40 44 39 36 43 47 61 67 79 90 79 94 100 97 77 56 51 62 66 78 91 83 98 93 95 94 82 96 58 69 74 85 89 92 92
68 56 54 54 64 60 87 60 56 43 45 47 35 53 44 55 68 75 83 72 83 79 84 97 95 55 58 61 58 67 66 91 94 95 98 92 94 90 88 91 83 90 94 94 93
59 57 57 61 59 73 84 72 48 42 45 51 56 60 58 71 72 80 77 61 75 81 85 92 96 76 70 91 86 76 92 87 91 97 99 98 98 97 96 96 95 94 95 96 95
61 84 66 65 78 98 88 52 39 44 47 50 50 52 56 57 80 83 76 70 72 81 94 90 96 100 84 73 65 72 79 92 97 94 96 97 94 95 96 96 96 94 95 94 94
71 70 68 57 84 92 59 53 47 45 45 46 50 51 56 58 56 62 59 65 71 79 92 89 94 92 75 74 65 91 72 80 89 98 97 98 95 79 74 87 92 96 94 94 95
86 85 85 92 92 68 60 52 59 50 48 45 45 49 58 65 64 66 65 60 70 72 68 76 98 84 91 82 91 98 90 84 92 96 96 97 90 76 78 89 86 92 93 95 96
84 85 63 88 84 75 70 60 53 55 52 48 51 45 58 64 82 83 72 65 68 68 75 86 95 99 90 82 85 86 97 94 100 95 97 92 99 92 86 95 95 97 94 94 93
90 84 84 86 62 72 75 72 46 49 53 53 62 49 57 72 59 68 80 80 87 73 90 90 94 94 96 87 84 88 87 91 94 87 86 92 88 70 79 74 92 96 95 95 94
89 70 67 74 83 76 75 70 56 62 50 46 49 60 63 56 60 60 64 67 71 91 99 96 97 99 97 80 95 95 98 99 95 98 97 98 86 81 84 79 91 95 95 96 96
Wind_Speed
11 13 13 13 13 13 13 11 9 8 7 8 8 8 8 10 8 5 5 8 13 17 17 8 5 5 4 1 3 3 1 6 9 10 11 10 11 16 9 7 7 5 3 5 13
11 12 12 13 12 12 12 10 8 7 7 7 7 8 8 9 2 4 12 21 17 18 8 5 6 8 3 1 2 3 3 7 6 8 11 14 12 15 6 10 7 10 6 5 12
10 12 12 13 12 12 11 9 6 6 6 7 8 9 12 1 2 4 20 21 19 14 4 4 2 2 2 3 2 1 5 5 16 14 14 14 13 7 7 11 11 10 3 7 10
10 11 12 12 12 11 11 9 6 6 6 7 9 11 8 2 3 5 20 25 25 12 5 4 3 2 3 3 2 4 10 11 13 13 12 13 10 11 7 16 5 10 2 5 7
10 11 11 12 12 11 10 9 6 6 7 7 9 12 4 6 4 9 20 20 11 6 3 2 3 1 2 4 4 5 6 9 13 19 15 13 16 11 13 15 7 12 8 8 4
10 11 11 12 13 11 10 9 7 6 6 7 10 8 6 4 6 8 11 14 7 2 2 2 2 3 4 5 1 5 10 17 11 12 8 6 5 5 10 7 12 11 7 10 5
10 11 11 13 13 12 10 9 7 6 7 6 8 3 4 4 2 9 11 13 3 1 2 3 3 3 3 7 3 7 8 10 4 7 5 3 4 4 13 6 11 10 5 11 9
11 12 12 13 13 12 11 9 7 6 7 4 6 2 1 2 4 8 9 13 2 2 3 3 3 1 1 7 8 7 4 7 11 9 5 4 6 16 23 11 8 9 8 11 5
11 12 12 14 12 13 12 10 8 8 5 3 4 2 5 9 13 5 7 7 9 6 0 1 5 4 7 4 4 5 7 7 9 9 10 6 7 22 22 22 23 14 5 5 5
10 12 12 14 13 15 9 2 4 4 4 1 3 3 7 9 8 13 19 6 5 4 5 7 6 3 4 5 5 10 6 5 7 7 11 7 11 13 21 20 18 21 18 16 18
9 10 10 12 12 14 4 4 5 6 10 5 2 3 8 9 3 19 16 8 6 10 6 5 9 9 9 6 6 6 4 7 6 4 6 9 15 15 16 22 22 20 19 18 18
8 10 10 10 8 9 5 5 1 3 5 1 1 2 5 4 6 19 14 9 8 6 9 7 5 7 9 11 7 7 5 5 11 7 6 7 16 15 13 17 14 13 16 18 20
9 9 9 10 1 6 5 3 2 1 5 2 3 3 4 4 4 12 11 6 7 6 6 1 5 10 12 11 16 10 4 4 8 14 3 3 4 20 16 15 18 21 19 18 18
8 9 10 5 5 1 3 3 2 1 7 8 7 6 9 3 5 5 8 1 7 6 7 3 7 9 17 11 11 6 1 15 13 4 3 2 2 20 17 16 24 26 23 23 24
7 7 6 5 6 3 0 2 1 2 5 6 5 3 7 10 6 13 7 6 4 6 5 4 8 8 15 12 11 9 20 8 2 2 3 6 5 8 13 22 27 23 23 21 20
5 6 1 4 4 1 2 3 3 8 3 3 4 7 6 6 8 8 10 7 2 4 4 5 6 3 5 15 7 15 5 2 3 2 4 8 1 8 17 18 22 20 23 23 22
3 6 4 1 2 2 2 4 6 7 2 5 4 6 3 7 7 9 7 12 9 10 11 10 6 8 12 9 5 18 7 5 7 7 4 4 9 2 14 16 15 18 22 21 20
3 4 5 2 1 4 3 6 6 1 1 1 3 2 5 7 4 9 5 7 7 5 3 8 11 10 10 3 9 7 5 4 1 4 4 6 3 4 15 12 17 15 19 21 24
6 2 2 2 2 3 6 6 6 3 2 2 2 5 4 3 1 4 6 5 3 3 5 8 6 6 3 4 6 8 7 3 2 3 1 3 3 3 20 19 20 21 25 25 23
3 2 1 2 3 4 7 4 2 2 3 1 4 2 4 6 5 6 5 4 5 5 2 2 8 3 6 7 7 7 6 5 4 5 5 3 3 6 22 25 25 26 25 24 23
3 2 1 0 2 7 5 3 3 2 2 2 4 2 1 1 2 1 4 4 4 6 2 2 4 10 4 7 6 7 7 6 2 1 2 4 2 4 15 19 20 19 20 21 22
3 1 1 2 5 2 3 5 4 3 2 2 4 2 3 2 2 0 2 5 6 2 5 2 2 6 5 4 4 4 5 4 3 7 2 2 3 3 13 15 15 15 18 19 19
1 1 1 2 4 2 2 3 3 3 3 3 3 2 0 2 3 2 1 2 5 5 5 2 2 5 11 7 5 6 7 5 5 1 2 1 3 2 15 16 16 17 19 19 20
3 1 4 5 1 8 7 4 4 3 2 3 4 4 4 1 2 2 1 1 4 4 10 3 2 6 6 7 2 4 7 8 1 3 4 0 11 9 19 21 21 19 19 18 16
3 2 2 2 2 5 5 5 6 4 1 2 2 3 5 2 3 1 1 4 3 7 4 5 2 1 6 8 2 2 3 6 4 1 1 7 7 7 17 18 15 13 17 19 20
5 3 3 2 3 6 3 4 7 4 6 4 3 6 5 5 6 6 4 3 1 5 4 4 1 3 4 2 2 3 5 5 2 3 2 7 8 13 17 14 12 11 17 20 19
1 3 4 2 3 4 5 6 7 9 2 2 6 5 4 2 4 3 3 3 2 5 2 3 2 3 5 4 3 4 4 2 4 1 2 3 7 15 19 19 15 10 17 17 18
Wind_Direction
3 360 1 3 2 0 1 1 5 17 23 19 17 12 6 347 334 20 352 310 341 354 349 322 341 322 327 289 159 98 96 265 264 264 268 278 287 283 264 264 272 255 241 345 334
2 358 359 359 359 359 2 0 1 9 10 5 2 355 343 339 11 4 334 337 338 343 351 322 313 332 333 312 335 132 178 256 241 248 266 276 267 279 267 269 275 284 258 13 347
359 355 356 355 355 355 359 4 357 357 358 355 348 340 335 59 63 292 340 337 325 346 314 254 255 312 332 1 285 210 229 250 276 259 266 264 270 257 249 262 248 274 326 48 354
353 355 354 353 351 353 354 357 351 356 356 349 341 339 341 75 344 293 335 330 324 334 327 330 349 46 306 315 287 291 257 264 284 278 271 264 271 270 228 247 246 260 298 69 350
348 348 353 350 346 350 349 348 340 353 1 5 360 347 62 43 297 285 323 318 322 334 326 347 24 7 311 280 313 211 270 294 285 286 279 272 261 250 248 253 243 264 234 117 287
345 345 350 347 345 345 344 339 330 327 340 4 3 3 79 66 250 309 310 326 321 312 322 228 221 239 295 268 217 264 301 292 293 296 277 272 290 151 262 263 243 249 229 136 213
341 345 345 346 347 341 344 339 338 319 316 323 346 34 71 207 230 308 328 317 256 217 250 232 184 71 314 300 299 288 309 311 321 315 298 238 312 246 277 272 256 249 226 160 194
340 346 345 347 349 339 338 331 320 315 322 330 356 62 227 275 292 335 325 332 307 244 235 269 146 115 41 310 339 344 22 349 315 336 320 14 309 13 350 354 296 228 174 149 177
340 346 344 346 349 340 331 316 297 316 301 313 39 46 345 325 351 350 6 300 298 326 219 52 58 59 358 1 356 11 307 322 310 328 336 20 348 18 7 25 10 24 36 159 188
341 344 343 348 347 343 335 276 336 34 7 9 85 28 12 317 322 344 350 352 352 350 22 39 41 57 10 29 335 316 319 300 286 312 336 31 41 29 17 24 11 8 11 14 6
337 344 341 347 350 356 24 38 23 357 33 90 162 127 287 305 10 356 344 335 11 60 19 355 40 356 324 310 278 263 261 288 277 284 348 69 44 11 20 18 12 10 3 3 4
336 340 333 342 348 20 66 77 63 196 98 345 16 270 294 335 346 358 2 41 38 19 346 9 17 316 307 331 313 312 301 306 295 338 330 91 59 33 20 18 1 5 4 2 355
334 338 331 332 26 38 76 100 311 357 95 20 32 348 331 355 43 347 9 350 47 30 10 47 289 335 342 333 348 338 238 286 294 317 245 226 74 10 12 9 6 12 4 1 359
338 338 332 355 55 118 47 316 1 60 77 334 354 1 357 327 48 23 7 13 27 10 338 286 316 353 341 348 350 306 331 314 300 320 298 348 80 22 355 1 11 7 4 354 352
343 346 35 71 140 66 341 337 3 42 42 357 344 327 354 60 297 346 344 14 54 326 17 295 322 340 346 330 323 267 323 299 236 198 322 24 69 358 359 4 359 357 358 353 341
351 354 168 30 51 55 4 47 45 44 267 26 6 3 22 20 2 317 8 23 96 5 355 276 283 296 311 300 283 323 341 18 33 62 46 325 92 10 6 349 344 348 351 350 348
10 15 54 72 142 104 77 47 34 106 353 359 346 5 57 354 354 9 3 29 39 15 11 330 338 321 356 329 317 356 22 3 13 20 6 13 55 38 357 349 345 344 348 349 347
91 71 28 32 116 111 64 50 75 243 301 28 37 360 55 9 12 349 15 21 47 66 37 15 341 358 343 16 300 328 64 106 334 351 312 24 24 148 19 0 353 349 349 350 355
115 35 36 326 144 71 82 53 195 193 112 36 64 56 352 22 99 39 17 2 27 21 82 0 284 313 307 324 3 330 34 269 285 243 281 355 337 141 1 354 355 356 359 355 352
102 89 273 292 121 76 75 158 141 78 112 64 87 20 360 344 41 47 352 313 336 47 94 323 297 314 312 351 13 64 307 18 9 27 347 357 43 313 346 356 350 352 355 346 345
78 51 177 191 76 49 114 164 134 104 118 88 143 116 103 53 92 54 268 303 355 331 68 111 118 297 6 13 360 353 15 357 296 37 145 317 340 9 356 351 344 342 343 338 342
97 326 29 145 51 39 100 135 135 137 66 91 88 110 153 152 94 334 299 197 9 32 16 305 108 289 242 306 325 92 359 15 81 324 14 264 297 38 13 343 329 334 340 341 342
163 260 349 123 137 79 127 76 68 132 149 137 126 131 92 129 72 239 315 104 18 28 13 298 355 356 347 353 21 30 7 335 267 284 37 57 313 14 359 345 346 339 345 346 340
91 324 340 53 27 126 140 146 105 6 103 119 129 107 75 104 27 185 325 43 346 3 18 89 93 150 195 221 164 3 342 342 47 54 307 265 305 338 348 341 342 344 342 340 340
66 280 315 220 317 104 96 139 132 163 62 183 88 183 150 127 2 195 16 347 31 4 27 91 118 122 270 271 246 138 315 352 36 114 184 311 308 329 340 330 332 329 334 343 345
136 139 359 64 72 93 359 207 150 156 149 218 158 159 161 147 182 209 132 155 250 344 45 356 264 47 293 172 294 194 2 6 349 351 314 307 296 351 323 322 333 336 345 341 339
120 94 123 282 98 97 196 176 182 130 331 205 155 117 166 212 154 143 127 138 162 130 338 62 25 48 273 357 11 16 289 307 282 206 263 342 293 322 325 330 334 339 348 335 332